This is the latest recevied weather packets stored in our database for station/object KJ5IIV. If no packets are shown the sender has not sent any weather packets the latest 10 day(s).
| Time | Temp. | Humidity | Pressure | Rain* | Wind** | Luminosity | Snow |
|---|---|---|---|---|---|---|---|
| 1777230954 | 28.33° C | 73% | 1008.5 hPa | 0 mm | - | 438 W/m² | - |
| 1777230650 | 28.33° C | 70% | 1008.5 hPa | 0 mm | - | 427 W/m² | - |
| 1777230345 | 28.33° C | 72% | 1008.5 hPa | 0 mm | - | 442 W/m² | - |
| 1777230042 | 28.33° C | 74% | 1008.6 hPa | 0 mm | - | 517 W/m² | - |
| 1777229739 | 28.33° C | 73% | 1008.8 hPa | 0 mm | - | 419 W/m² | - |
| 1777229436 | 28.33° C | 75% | 1008.6 hPa | 0 mm | - | 445 W/m² | - |
| 1777229132 | 28.33° C | 73% | 1008.4 hPa | 0 mm | - | 440 W/m² | - |
| 1777228830 | 27.78° C | 75% | 1008.5 hPa | 0 mm | - | 583 W/m² | - |
| 1777228525 | 27.78° C | 74% | 1008.3 hPa | 0 mm | - | 428 W/m² | - |
| 1777228222 | 27.78° C | 75% | 1008.5 hPa | 0 mm | - | 384 W/m² | - |
| 1777227920 | 27.78° C | 75% | 1008.7 hPa | 0 mm | - | 427 W/m² | - |
| 1777227616 | 27.78° C | 75% | 1008.9 hPa | 0 mm | - | 219 W/m² | - |
| 1777227312 | 27.22° C | 76% | 1008.8 hPa | 0 mm | - | 454 W/m² | - |
| 1777227010 | 27.22° C | 76% | 1009 hPa | 0 mm | - | 354 W/m² | - |
| 1777226708 | 27.78° C | 75% | 1009.1 hPa | 0 mm | - | 390 W/m² | - |
| 1777226404 | 27.78° C | 75% | 1009 hPa | 0 mm | - | 426 W/m² | - |
| 1777226100 | 27.78° C | 75% | 1009.2 hPa | 0 mm | - | 429 W/m² | - |
| 1777225795 | 27.78° C | 76% | 1009 hPa | 0 mm | - | 410 W/m² | - |
| 1777225493 | 27.78° C | 77% | 1008.8 hPa | 0 mm | - | 400 W/m² | - |
| 1777225190 | 27.22° C | 77% | 1008.9 hPa | 0 mm | - | 385 W/m² | - |
| 1777224886 | 27.22° C | 76% | 1009.1 hPa | 0 mm | - | 349 W/m² | - |
* Rain latest hour (hover to see other rain measurements)
** Current wind speed in m/s (hover to see current wind gust speed)